Weather History for V.C. Bird, Antigua

Change the Weather History Date:

Tuesday, April 8, 2014

  Actual Average Record
Temperature  
Mean Temperature 80 °F -  
Max Temperature 84 °F 83 °F 86 °F (1998)
Min Temperature 75 °F 74 °F 71 °F (1999)
Cooling Degree Days 14    
Growing Degree Days 30 (Base 50)    
Moisture  
Dew Point 71 °F    
Average Humidity 74    
Maximum Humidity 89    
Minimum Humidity 54    
Precipitation  
Precipitation 0.16 in - - ()
Sea Level Pressure  
Sea Level Pressure 30.06 in    
Wind  
Wind Speed 10 mph ()    
Max Wind Speed 15 mph    
Max Gust Speed -    
Visibility 8.5 miles    
Events Rain    
Averages and records for this station are not official NWS values.
T = Trace of Precipitation, MM = Missing Value Source: Averaged Metar Reports

Daily Weather History Graph

Daily Weather History Graph

Search for Another Location

Airport:

Trip Planner

Search our weather history database for the weather conditions in past years. The results will help you decide how hot, cold, wet, or windy it might be!

Date:

Astronomy

Apr. 08, 2014 Rise Set
Actual Time 5:56 AM AST 6:21 PM AST
Civil Twilight 5:34 AM AST 6:43 PM AST
Nautical Twilight 5:09 AM AST 7:09 PM AST
Astronomical Twilight 4:43 AM AST 7:34 PM AST
Moon 1:00 PM AST (4/8) 1:15 AM AST (4/8)
Length of Visible Light 13h 08m
Length of Day
12h 25m
Waxing Gibbous, 62% of the Moon is Illuminated
Apr 8
Waxing Gibbous
Apr 15
Full
Apr 22
Last Quarter
Apr 29
New
May 6
First Quarter

Hourly Weather History & Observations

Time (AST) Temp. Heat Index Dew Point Humidity Pressure Visibility Wind Dir Wind Speed Gust Speed Precip Events Conditions
12:00 AM 77.0 °F - 69.8 °F 78% 30.06 in 6.2 mi ENE 12.7 mph - N/A Rain Light Rain Showers
1:00 AM 77.0 °F - 69.8 °F 78% 30.04 in 6.2 mi ENE 11.5 mph - N/A   Mostly Cloudy
2:00 AM 77 °F - 71 °F 76% 30.05 in 17 mi ENE 12.7 mph - -   Haze
2:00 AM 77.0 °F - 71.6 °F 83% 30.04 in 6.2 mi ENE 12.7 mph - N/A   Scattered Clouds
3:00 AM 77.0 °F - 69.8 °F 78% 30.01 in 6.2 mi East 9.2 mph - N/A   Mostly Cloudy
4:00 AM 77.0 °F - 69.8 °F 78% 30.01 in 6.2 mi East 8.1 mph - N/A   Mostly Cloudy
5:00 AM 77 °F - 70 °F 74% 30.03 in 17 mi East 9.2 mph - -   Haze
5:00 AM 77.0 °F - 69.8 °F 78% 30.01 in 6.2 mi East 9.2 mph - N/A   Scattered Clouds
6:00 AM 77.0 °F - 69.8 °F 78% 30.04 in 6.2 mi East 8.1 mph - N/A   Mostly Cloudy
7:00 AM 78.8 °F - 71.6 °F 78% 30.06 in 6.2 mi East 10.4 mph - N/A   Mostly Cloudy
8:00 AM 80 °F - 71 °F 67% 30.09 in 17 mi East 11.5 mph - -   Haze
8:00 AM 80.6 °F 84.6 °F 71.6 °F 74% 30.06 in 6.2 mi East 11.5 mph - N/A   Mostly Cloudy
9:00 AM 82.4 °F 87.2 °F 71.6 °F 70% 30.09 in 6.2 mi East 11.5 mph - N/A   Mostly Cloudy
10:00 AM 82.4 °F 87.2 °F 71.6 °F 70% 30.09 in 6.2 mi East 12.7 mph - N/A   Scattered Clouds
11:00 AM 82 °F - 70 °F 60% 30.12 in 17 mi ESE 15.0 mph - -   Haze
11:00 AM 82.4 °F 86.3 °F 69.8 °F 66% 30.09 in 6.2 mi ESE 15.0 mph - N/A   Scattered Clouds
12:00 PM 84.2 °F 89.6 °F 71.6 °F 66% 30.09 in 6.2 mi East 13.8 mph - N/A   Scattered Clouds
1:00 PM 82.4 °F 87.2 °F 71.6 °F 70% 30.06 in 6.2 mi East 13.8 mph - N/A   Mostly Cloudy
2:00 PM 84 °F - 70 °F 54% 30.05 in 15 mi ESE 11.5 mph - -   Mostly Cloudy
2:00 PM 84.2 °F 88.4 °F 69.8 °F 62% 30.04 in 6.2 mi ESE 11.5 mph - N/A   Mostly Cloudy
3:00 PM 82.4 °F 87.2 °F 71.6 °F 70% 30.04 in 6.2 mi East 11.5 mph - N/A   Mostly Cloudy
4:00 PM 80.6 °F 84.6 °F 71.6 °F 74% 30.01 in 6.2 mi East 11.5 mph - N/A   Mostly Cloudy
5:00 PM 81 °F - 71 °F 65% 30.04 in 17 mi ESE 8.1 mph - -   Haze
5:00 PM 80.6 °F 84.6 °F 71.6 °F 74% 30.04 in 6.2 mi ESE 8.1 mph - N/A   Scattered Clouds
6:00 PM 78.8 °F - 69.8 °F 74% 30.04 in 6.2 mi East 9.2 mph - N/A   Mostly Cloudy
7:00 PM 78.8 °F - 69.8 °F 74% 30.06 in 6.2 mi ESE 15.0 mph - N/A   Mostly Cloudy
8:00 PM 78 °F - 71 °F 74% 30.08 in 17 mi East 13.8 mph - - Rain Light Rain Showers
8:00 PM 78.8 °F - 71.6 °F 78% 30.06 in 6.2 mi East 13.8 mph - N/A Rain Light Rain Showers
9:00 PM 77.0 °F - 71.6 °F 83% 30.09 in 6.2 mi East 10.4 mph - N/A Rain Light Rain Showers
10:00 PM 77.0 °F - 71.6 °F 83% 30.09 in 6.2 mi East 10.4 mph - N/A   Mostly Cloudy
11:00 PM 75 °F - 71 °F 84% 30.11 in 7 mi ESE 5.8 mph - - Rain Light Rain
11:00 PM 75.2 °F - 71.6 °F 89% 30.09 in 6.2 mi ESE 5.8 mph - N/A Rain Light Rain